Location: Township of Marena
(38.1747°N, 99.6798°W)
Time: 03:43:41
(UTC+00:00)

H-2A R/B - Pass Details

Date: 26 October 2020
Orbit: 733 x 837 km, 98.2° (Epoch: 24 November)

Event Time Altitude Azimuth Distance (km) Brightness Sun altitude
Exits shadow 01:03:02 - 139° (SE) 2,705 4.5 -15.6°
Reaches altitude 10° 01:03:50 10° 136° (SE) 2,413 4.2 -15.7°
Maximum altitude 01:08:45 38° 70° (ENE) 1,245 2.6 -16.7°
Drops below altitude 10° 01:13:45 10° 4° (N) 2,456 4.6 -17.7°
Sets 01:16:16 0° 356° (N) 3,396 5.4 -18.2°
